owner,sensor,date,latitude,longitude,vertical_datum,sea_water_temperature,qcFlag 
WAVCIS,ioos:station:WAVCIS:CSI03:1,2016-01-01T00:00:00Z,29.4412,-92.0613,10.0,-8.14,11144222 
WAVCIS,ioos:station:WAVCIS:CSI03:1,2016-01-01T01:00:00Z,29.4412,-92.0613,10.0,-7.885,11144222 
WAVCIS,ioos:station:WAVCIS:CSI03:1,2016-01-01T02:00:00Z,29.4412,-92.0613,10.0,-8.17,11144222 
WAVCIS,ioos:station:WAVCIS:CSI03:1,2016-01-01T03:00:00Z,29.4412,-92.0613,10.0,-8.41,11144222 
WAVCIS,ioos:station:WAVCIS:CSI03:1,2016-01-01T04:00:00Z,29.4412,-92.0613,10.0,-8.81,11144222 
WAVCIS,ioos:station:WAVCIS:CSI03:1,2016-01-01T05:00:00Z,29.4412,-92.0613,10.0,-8.55,11144222 
WAVCIS,ioos:station:WAVCIS:CSI03:1,2016-01-01T06:00:00Z,29.4412,-92.0613,10.0,-8.67,11144222 
WAVCIS,ioos:station:WAVCIS:CSI03:1,2016-01-01T07:00:00Z,29.4412,-92.0613,10.0,-8.79,11144222 
WAVCIS,ioos:station:WAVCIS:CSI03:1,2016-01-01T08:00:00Z,29.4412,-92.0613,10.0,-8.64,11144222 
WAVCIS,ioos:station:WAVCIS:CSI03:1,2016-01-01T09:00:00Z,29.4412,-92.0613,10.0,-9.07,11144222 
WAVCIS,ioos:station:WAVCIS:CSI03:1,2016-01-01T10:00:00Z,29.4412,-92.0613,10.0,-8.62,11144222 
WAVCIS,ioos:station:WAVCIS:CSI03:1,2016-01-01T11:00:00Z,29.4412,-92.0613,10.0,-8.91,11144222 
WAVCIS,ioos:station:WAVCIS:CSI03:1,2016-01-01T12:00:00Z,29.4412,-92.0613,10.0,-9.0,11144222 
WAVCIS,ioos:station:WAVCIS:CSI03:1,2016-01-01T13:00:00Z,29.4412,-92.0613,10.0,-9.09,11144222 
WAVCIS,ioos:station:WAVCIS:CSI03:1,2016-01-01T14:00:00Z,29.4412,-92.0613,10.0,-9.01,11144222 
WAVCIS,ioos:station:WAVCIS:CSI03:1,2016-01-01T15:00:00Z,29.4412,-92.0613,10.0,-9.11,11144222 
WAVCIS,ioos:station:WAVCIS:CSI03:1,2016-01-01T16:00:00Z,29.4412,-92.0613,10.0,-8.95,11144222 
WAVCIS,ioos:station:WAVCIS:CSI03:1,2016-01-01T17:00:00Z,29.4412,-92.0613,10.0,-8.98,11144222 
WAVCIS,ioos:station:WAVCIS:CSI03:1,2016-01-01T18:00:00Z,29.4412,-92.0613,10.0,-9.34,11144222 
WAVCIS,ioos:station:WAVCIS:CSI03:1,2016-01-01T19:00:00Z,29.4412,-92.0613,10.0,-9.48,11144222 
WAVCIS,ioos:station:WAVCIS:CSI03:1,2016-01-01T20:00:00Z,29.4412,-92.0613,10.0,-9.46,11144222 
WAVCIS,ioos:station:WAVCIS:CSI03:1,2016-01-01T21:00:00Z,29.4412,-92.0613,10.0,-9.5,11144222 
WAVCIS,ioos:station:WAVCIS:CSI03:1,2016-01-01T22:00:00Z,29.4412,-92.0613,10.0,-9.57,11144222 
WAVCIS,ioos:station:WAVCIS:CSI03:1,2016-01-01T23:00:00Z,29.4412,-92.0613,10.0,-9.59,11144222 
WAVCIS,ioos:station:WAVCIS:CSI03:1,2016-01-02T00:00:00Z,29.4412,-92.0613,10.0,-9.64,11144222 
WAVCIS,ioos:station:WAVCIS:CSI03:1,2016-01-02T01:00:00Z,29.4412,-92.0613,10.0,-9.97,11144222 
WAVCIS,ioos:station:WAVCIS:CSI03:1,2016-01-02T02:00:00Z,29.4412,-92.0613,10.0,-10.02,11144222 
WAVCIS,ioos:station:WAVCIS:CSI03:1,2016-01-02T03:00:00Z,29.4412,-92.0613,10.0,-9.98,11144222 
WAVCIS,ioos:station:WAVCIS:CSI03:1,2016-01-02T04:00:00Z,29.4412,-92.0613,10.0,-10.1,11144222 
WAVCIS,ioos:station:WAVCIS:CSI03:1,2016-01-02T05:00:00Z,29.4412,-92.0613,10.0,-10.43,11144222 
WAVCIS,ioos:station:WAVCIS:CSI03:1,2016-01-02T06:00:00Z,29.4412,-92.0613,10.0,-10.61,11144222 
WAVCIS,ioos:station:WAVCIS:CSI03:1,2016-01-02T07:00:00Z,29.4412,-92.0613,10.0,-10.74,11144222 
WAVCIS,ioos:station:WAVCIS:CSI03:1,2016-01-02T08:00:00Z,29.4412,-92.0613,10.0,-10.57,11144222 
WAVCIS,ioos:station:WAVCIS:CSI03:1,2016-01-02T09:00:00Z,29.4412,-92.0613,10.0,-10.61,11144222 
WAVCIS,ioos:station:WAVCIS:CSI03:1,2016-01-02T10:00:00Z,29.4412,-92.0613,10.0,-10.68,11144222 
WAVCIS,ioos:station:WAVCIS:CSI03:1,2016-01-02T11:00:00Z,29.4412,-92.0613,10.0,-10.87,11144222 
WAVCIS,ioos:station:WAVCIS:CSI03:1,2016-01-02T12:00:00Z,29.4412,-92.0613,10.0,-10.82,11144222 
WAVCIS,ioos:station:WAVCIS:CSI03:1,2016-01-02T13:00:00Z,29.4412,-92.0613,10.0,-10.93,11144222 
WAVCIS,ioos:station:WAVCIS:CSI03:1,2016-01-02T14:00:00Z,29.4412,-92.0613,10.0,-11.13,11144222 
WAVCIS,ioos:station:WAVCIS:CSI03:1,2016-01-02T15:00:00Z,29.4412,-92.0613,10.0,-11.01,11144222 
WAVCIS,ioos:station:WAVCIS:CSI03:1,2016-01-02T16:00:00Z,29.4412,-92.0613,10.0,-11.11,11144222 
WAVCIS,ioos:station:WAVCIS:CSI03:1,2016-01-02T17:00:00Z,29.4412,-92.0613,10.0,-10.96,11144222 
WAVCIS,ioos:station:WAVCIS:CSI03:1,2016-01-02T18:00:00Z,29.4412,-92.0613,10.0,-10.91,11144222 
WAVCIS,ioos:station:WAVCIS:CSI03:1,2016-01-02T19:00:00Z,29.4412,-92.0613,10.0,-11.02,11144222 
WAVCIS,ioos:station:WAVCIS:CSI03:1,2016-01-02T20:00:00Z,29.4412,-92.0613,10.0,-10.94,11144222 
WAVCIS,ioos:station:WAVCIS:CSI03:1,2016-01-02T21:00:00Z,29.4412,-92.0613,10.0,-11.2,11144222 
WAVCIS,ioos:station:WAVCIS:CSI03:1,2016-01-02T22:00:00Z,29.4412,-92.0613,10.0,-11.08,11144222 
WAVCIS,ioos:station:WAVCIS:CSI03:1,2016-01-02T23:00:00Z,29.4412,-92.0613,10.0,-10.53,11144222 
WAVCIS,ioos:station:WAVCIS:CSI03:1,2016-01-03T00:00:00Z,29.4412,-92.0613,10.0,-10.91,11144222 
WAVCIS,ioos:station:WAVCIS:CSI03:1,2016-01-03T01:00:00Z,29.4412,-92.0613,10.0,-11.21,11144222 
WAVCIS,ioos:station:WAVCIS:CSI03:1,2016-01-03T02:00:00Z,29.4412,-92.0613,10.0,-10.99,11144222 
WAVCIS,ioos:station:WAVCIS:CSI03:1,2016-01-03T03:00:00Z,29.4412,-92.0613,10.0,-11.1,11144222 
WAVCIS,ioos:station:WAVCIS:CSI03:1,2016-01-03T04:00:00Z,29.4412,-92.0613,10.0,-11.1,11144222 
WAVCIS,ioos:station:WAVCIS:CSI03:1,2016-01-03T05:00:00Z,29.4412,-92.0613,10.0,-11.25,11144222 
WAVCIS,ioos:station:WAVCIS:CSI03:1,2016-01-03T06:00:00Z,29.4412,-92.0613,10.0,-11.32,11144222 
WAVCIS,ioos:station:WAVCIS:CSI03:1,2016-01-03T07:00:00Z,29.4412,-92.0613,10.0,-11.74,11144222 
WAVCIS,ioos:station:WAVCIS:CSI03:1,2016-01-03T08:00:00Z,29.4412,-92.0613,10.0,-11.93,11144222 
WAVCIS,ioos:station:WAVCIS:CSI03:1,2016-01-03T09:00:00Z,29.4412,-92.0613,10.0,-11.83,11144222 
WAVCIS,ioos:station:WAVCIS:CSI03:1,2016-01-03T10:00:00Z,29.4412,-92.0613,10.0,-11.83,11144222 
WAVCIS,ioos:station:WAVCIS:CSI03:1,2016-01-03T11:00:00Z,29.4412,-92.0613,10.0,-11.7,11144222 
WAVCIS,ioos:station:WAVCIS:CSI03:1,2016-01-03T12:00:00Z,29.4412,-92.0613,10.0,-11.39,11144222 
WAVCIS,ioos:station:WAVCIS:CSI03:1,2016-01-03T13:00:00Z,29.4412,-92.0613,10.0,-11.38,11144222 
WAVCIS,ioos:station:WAVCIS:CSI03:1,2016-01-03T14:00:00Z,29.4412,-92.0613,10.0,-11.51,11144222 
WAVCIS,ioos:station:WAVCIS:CSI03:1,2016-01-03T15:00:00Z,29.4412,-92.0613,10.0,-11.54,11144222 
WAVCIS,ioos:station:WAVCIS:CSI03:1,2016-01-03T16:00:00Z,29.4412,-92.0613,10.0,-11.67,11144222 
WAVCIS,ioos:station:WAVCIS:CSI03:1,2016-01-03T17:00:00Z,29.4412,-92.0613,10.0,-11.8,11144222 
WAVCIS,ioos:station:WAVCIS:CSI03:1,2016-01-03T18:00:00Z,29.4412,-92.0613,10.0,-11.71,11144222 
WAVCIS,ioos:station:WAVCIS:CSI03:1,2016-01-03T19:00:00Z,29.4412,-92.0613,10.0,-11.77,11144222 
WAVCIS,ioos:station:WAVCIS:CSI03:1,2016-01-03T20:00:00Z,29.4412,-92.0613,10.0,-11.8,11144222 
WAVCIS,ioos:station:WAVCIS:CSI03:1,2016-01-03T21:00:00Z,29.4412,-92.0613,10.0,-11.94,11144222 
WAVCIS,ioos:station:WAVCIS:CSI03:1,2016-01-03T22:00:00Z,29.4412,-92.0613,10.0,-11.82,11144222 
WAVCIS,ioos:station:WAVCIS:CSI03:1,2016-01-03T23:00:00Z,29.4412,-92.0613,10.0,-11.88,11144222 
WAVCIS,ioos:station:WAVCIS:CSI03:1,2016-01-04T00:00:00Z,29.4412,-92.0613,10.0,-12.01,11144222 
WAVCIS,ioos:station:WAVCIS:CSI03:1,2016-01-04T01:00:00Z,29.4412,-92.0613,10.0,-12.13,11144222 
WAVCIS,ioos:station:WAVCIS:CSI03:1,2016-01-04T02:00:00Z,29.4412,-92.0613,10.0,-12.11,11144222 
WAVCIS,ioos:station:WAVCIS:CSI03:1,2016-01-04T03:00:00Z,29.4412,-92.0613,10.0,-12.09,11144222 
WAVCIS,ioos:station:WAVCIS:CSI03:1,2016-01-04T04:00:00Z,29.4412,-92.0613,10.0,-12.06,11144222 
WAVCIS,ioos:station:WAVCIS:CSI03:1,2016-01-04T05:00:00Z,29.4412,-92.0613,10.0,-12.32,11144222 
WAVCIS,ioos:station:WAVCIS:CSI03:1,2016-01-04T06:00:00Z,29.4412,-92.0613,10.0,-12.4,11144222 
WAVCIS,ioos:station:WAVCIS:CSI03:1,2016-01-04T07:00:00Z,29.4412,-92.0613,10.0,-12.4,11144222 
WAVCIS,ioos:station:WAVCIS:CSI03:1,2016-01-04T08:00:00Z,29.4412,-92.0613,10.0,-12.3,11144222 
WAVCIS,ioos:station:WAVCIS:CSI03:1,2016-01-04T09:00:00Z,29.4412,-92.0613,10.0,-12.55,11144222 
WAVCIS,ioos:station:WAVCIS:CSI03:1,2016-01-04T10:00:00Z,29.4412,-92.0613,10.0,-12.55,11144222 
WAVCIS,ioos:station:WAVCIS:CSI03:1,2016-01-04T11:00:00Z,29.4412,-92.0613,10.0,-12.22,11144222 
WAVCIS,ioos:station:WAVCIS:CSI03:1,2016-01-04T12:00:00Z,29.4412,-92.0613,10.0,-12.64,11144222 
WAVCIS,ioos:station:WAVCIS:CSI03:1,2016-01-04T13:00:00Z,29.4412,-92.0613,10.0,-12.77,11144222 
WAVCIS,ioos:station:WAVCIS:CSI03:1,2016-01-04T14:00:00Z,29.4412,-92.0613,10.0,-12.45,11144222 
WAVCIS,ioos:station:WAVCIS:CSI03:1,2016-01-04T15:00:00Z,29.4412,-92.0613,10.0,-12.25,11144222 
WAVCIS,ioos:station:WAVCIS:CSI03:1,2016-01-04T16:00:00Z,29.4412,-92.0613,10.0,-12.07,11144222 
WAVCIS,ioos:station:WAVCIS:CSI03:1,2016-01-04T17:00:00Z,29.4412,-92.0613,10.0,-12.05,11144222 
WAVCIS,ioos:station:WAVCIS:CSI03:1,2016-01-04T18:00:00Z,29.4412,-92.0613,10.0,-12.04,11144222 
WAVCIS,ioos:station:WAVCIS:CSI03:1,2016-01-04T19:00:00Z,29.4412,-92.0613,10.0,-12.19,11144222 
WAVCIS,ioos:station:WAVCIS:CSI03:1,2016-01-04T20:00:00Z,29.4412,-92.0613,10.0,-12.47,11144222 
WAVCIS,ioos:station:WAVCIS:CSI03:1,2016-01-04T21:00:00Z,29.4412,-92.0613,10.0,-13.03,11144222 
WAVCIS,ioos:station:WAVCIS:CSI03:1,2016-01-04T22:00:00Z,29.4412,-92.0613,10.0,-12.96,11144222 
WAVCIS,ioos:station:WAVCIS:CSI03:1,2016-01-04T23:00:00Z,29.4412,-92.0613,10.0,-13.02,11144222 
WAVCIS,ioos:station:WAVCIS:CSI03:1,2016-01-05T00:00:00Z,29.4412,-92.0613,10.0,-12.96,11144222 
WAVCIS,ioos:station:WAVCIS:CSI03:1,2016-01-05T01:00:00Z,29.4412,-92.0613,10.0,-12.9,11144222 
WAVCIS,ioos:station:WAVCIS:CSI03:1,2016-01-05T02:00:00Z,29.4412,-92.0613,10.0,-11.67,11144222 
WAVCIS,ioos:station:WAVCIS:CSI03:1,2016-01-05T03:00:00Z,29.4412,-92.0613,10.0,-12.05,11144222 
WAVCIS,ioos:station:WAVCIS:CSI03:1,2016-01-05T04:00:00Z,29.4412,-92.0613,10.0,-12.29,11144222 
WAVCIS,ioos:station:WAVCIS:CSI03:1,2016-01-05T05:00:00Z,29.4412,-92.0613,10.0,-12.27,11144222 
WAVCIS,ioos:station:WAVCIS:CSI03:1,2016-01-05T06:00:00Z,29.4412,-92.0613,10.0,-11.98,11144222 
WAVCIS,ioos:station:WAVCIS:CSI03:1,2016-01-05T07:00:00Z,29.4412,-92.0613,10.0,-11.92,11144222 
WAVCIS,ioos:station:WAVCIS:CSI03:1,2016-01-05T08:00:00Z,29.4412,-92.0613,10.0,-13.9,11144222 
WAVCIS,ioos:station:WAVCIS:CSI03:1,2016-01-05T09:00:00Z,29.4412,-92.0613,10.0,-13.43,11144222 
WAVCIS,ioos:station:WAVCIS:CSI03:1,2016-01-05T10:00:00Z,29.4412,-92.0613,10.0,-13.63,11144222 
WAVCIS,ioos:station:WAVCIS:CSI03:1,2016-01-05T11:00:00Z,29.4412,-92.0613,10.0,-14.25,11144222 
WAVCIS,ioos:station:WAVCIS:CSI03:1,2016-01-05T12:00:00Z,29.4412,-92.0613,10.0,-13.77,11144222 
WAVCIS,ioos:station:WAVCIS:CSI03:1,2016-01-05T13:00:00Z,29.4412,-92.0613,10.0,-12.91,11144222 
WAVCIS,ioos:station:WAVCIS:CSI03:1,2016-01-05T14:00:00Z,29.4412,-92.0613,10.0,-13.17,11144222 
WAVCIS,ioos:station:WAVCIS:CSI03:1,2016-01-05T15:00:00Z,29.4412,-92.0613,10.0,-12.4,11144222 
WAVCIS,ioos:station:WAVCIS:CSI03:1,2016-01-05T16:00:00Z,29.4412,-92.0613,10.0,-12.03,11144222 
WAVCIS,ioos:station:WAVCIS:CSI03:1,2016-01-05T17:00:00Z,29.4412,-92.0613,10.0,-12.0,11144222 
WAVCIS,ioos:station:WAVCIS:CSI03:1,2016-01-05T18:00:00Z,29.4412,-92.0613,10.0,-11.81,11144222 
WAVCIS,ioos:station:WAVCIS:CSI03:1,2016-01-05T19:00:00Z,29.4412,-92.0613,10.0,-11.82,11144222 
WAVCIS,ioos:station:WAVCIS:CSI03:1,2016-01-05T20:00:00Z,29.4412,-92.0613,10.0,-11.83,11144222 
WAVCIS,ioos:station:WAVCIS:CSI03:1,2016-01-05T21:00:00Z,29.4412,-92.0613,10.0,-11.8,11144222 
WAVCIS,ioos:station:WAVCIS:CSI03:1,2016-01-05T22:00:00Z,29.4412,-92.0613,10.0,-12.02,11144222 
WAVCIS,ioos:station:WAVCIS:CSI03:1,2016-01-05T23:00:00Z,29.4412,-92.0613,10.0,-12.16,11144222 
WAVCIS,ioos:station:WAVCIS:CSI03:1,2016-01-06T00:00:00Z,29.4412,-92.0613,10.0,-11.94,11144222 
WAVCIS,ioos:station:WAVCIS:CSI03:1,2016-01-06T01:00:00Z,29.4412,-92.0613,10.0,-12.16,11144222 
WAVCIS,ioos:station:WAVCIS:CSI03:1,2016-01-06T02:00:00Z,29.4412,-92.0613,10.0,-12.77,11144222 
WAVCIS,ioos:station:WAVCIS:CSI03:1,2016-01-06T03:00:00Z,29.4412,-92.0613,10.0,-11.74,11144222 
WAVCIS,ioos:station:WAVCIS:CSI03:1,2016-01-06T04:00:00Z,29.4412,-92.0613,10.0,-11.68,11144222 
WAVCIS,ioos:station:WAVCIS:CSI03:1,2016-01-06T05:00:00Z,29.4412,-92.0613,10.0,-11.11,11144222 
WAVCIS,ioos:station:WAVCIS:CSI03:1,2016-01-06T06:00:00Z,29.4412,-92.0613,10.0,-11.07,11144222 
WAVCIS,ioos:station:WAVCIS:CSI03:1,2016-01-06T07:00:00Z,29.4412,-92.0613,10.0,-11.16,11144222 
WAVCIS,ioos:station:WAVCIS:CSI03:1,2016-01-06T08:00:00Z,29.4412,-92.0613,10.0,-11.05,11144222 
WAVCIS,ioos:station:WAVCIS:CSI03:1,2016-01-06T09:00:00Z,29.4412,-92.0613,10.0,-10.69,11144222 
WAVCIS,ioos:station:WAVCIS:CSI03:1,2016-01-06T10:00:00Z,29.4412,-92.0613,10.0,-10.65,11144222 
WAVCIS,ioos:station:WAVCIS:CSI03:1,2016-01-06T11:00:00Z,29.4412,-92.0613,10.0,-10.45,11144222 
WAVCIS,ioos:station:WAVCIS:CSI03:1,2016-01-06T12:00:00Z,29.4412,-92.0613,10.0,-10.34,11144222 
WAVCIS,ioos:station:WAVCIS:CSI03:1,2016-01-06T13:00:00Z,29.4412,-92.0613,10.0,-10.76,11144222 
WAVCIS,ioos:station:WAVCIS:CSI03:1,2016-01-06T14:00:00Z,29.4412,-92.0613,10.0,-10.81,11144222 
WAVCIS,ioos:station:WAVCIS:CSI03:1,2016-01-06T15:00:00Z,29.4412,-92.0613,10.0,-10.75,11144222 
WAVCIS,ioos:station:WAVCIS:CSI03:1,2016-01-06T16:00:00Z,29.4412,-92.0613,10.0,-10.78,11144222 
WAVCIS,ioos:station:WAVCIS:CSI03:1,2016-01-06T17:00:00Z,29.4412,-92.0613,10.0,-10.81,11144222 
WAVCIS,ioos:station:WAVCIS:CSI03:1,2016-01-06T18:00:00Z,29.4412,-92.0613,10.0,-10.35,11144222 
WAVCIS,ioos:station:WAVCIS:CSI03:1,2016-01-06T19:00:00Z,29.4412,-92.0613,10.0,-10.4,11144222 
WAVCIS,ioos:station:WAVCIS:CSI03:1,2016-01-06T20:00:00Z,29.4412,-92.0613,10.0,-10.53,11144222 
WAVCIS,ioos:station:WAVCIS:CSI03:1,2016-01-06T21:00:00Z,29.4412,-92.0613,10.0,-10.39,11144222 
WAVCIS,ioos:station:WAVCIS:CSI03:1,2016-01-06T22:00:00Z,29.4412,-92.0613,10.0,-10.25,11144222 
WAVCIS,ioos:station:WAVCIS:CSI03:1,2016-01-06T23:00:00Z,29.4412,-92.0613,10.0,-10.17,11144222 
WAVCIS,ioos:station:WAVCIS:CSI03:1,2016-01-07T00:00:00Z,29.4412,-92.0613,10.0,-9.68,11144222 
WAVCIS,ioos:station:WAVCIS:CSI03:1,2016-01-07T01:00:00Z,29.4412,-92.0613,10.0,-9.52,11144222 
WAVCIS,ioos:station:WAVCIS:CSI03:1,2016-01-07T02:00:00Z,29.4412,-92.0613,10.0,-9.61,11144222 
WAVCIS,ioos:station:WAVCIS:CSI03:1,2016-01-07T03:00:00Z,29.4412,-92.0613,10.0,-9.69,11144222 
WAVCIS,ioos:station:WAVCIS:CSI03:1,2016-01-07T04:00:00Z,29.4412,-92.0613,10.0,-9.45,11144222 
WAVCIS,ioos:station:WAVCIS:CSI03:1,2016-01-07T05:00:00Z,29.4412,-92.0613,10.0,-9.96,11144222 
WAVCIS,ioos:station:WAVCIS:CSI03:1,2016-01-07T06:00:00Z,29.4412,-92.0613,10.0,-10.14,11144222 
WAVCIS,ioos:station:WAVCIS:CSI03:1,2016-01-07T07:00:00Z,29.4412,-92.0613,10.0,-10.0,11144222 
WAVCIS,ioos:station:WAVCIS:CSI03:1,2016-01-07T08:00:00Z,29.4412,-92.0613,10.0,-10.06,11144222 
WAVCIS,ioos:station:WAVCIS:CSI03:1,2016-01-07T09:00:00Z,29.4412,-92.0613,10.0,-11.28,11144222 
WAVCIS,ioos:station:WAVCIS:CSI03:1,2016-01-07T10:00:00Z,29.4412,-92.0613,10.0,-11.79,11144222 
WAVCIS,ioos:station:WAVCIS:CSI03:1,2016-01-07T11:00:00Z,29.4412,-92.0613,10.0,-11.82,11144222 
WAVCIS,ioos:station:WAVCIS:CSI03:1,2016-01-07T12:00:00Z,29.4412,-92.0613,10.0,-11.3,11144222 
WAVCIS,ioos:station:WAVCIS:CSI03:1,2016-01-07T13:00:00Z,29.4412,-92.0613,10.0,-11.08,11144222 
WAVCIS,ioos:station:WAVCIS:CSI03:1,2016-01-07T14:00:00Z,29.4412,-92.0613,10.0,-11.05,11144222 
WAVCIS,ioos:station:WAVCIS:CSI03:1,2016-01-07T15:00:00Z,29.4412,-92.0613,10.0,-11.07,11144222 
WAVCIS,ioos:station:WAVCIS:CSI03:1,2016-01-07T16:00:00Z,29.4412,-92.0613,10.0,-11.0,11144222 
WAVCIS,ioos:station:WAVCIS:CSI03:1,2016-01-07T17:00:00Z,29.4412,-92.0613,10.0,-11.1,11144222 
WAVCIS,ioos:station:WAVCIS:CSI03:1,2016-01-07T18:00:00Z,29.4412,-92.0613,10.0,-10.95,11144222 
WAVCIS,ioos:station:WAVCIS:CSI03:1,2016-01-07T19:00:00Z,29.4412,-92.0613,10.0,-11.27,11144222 
WAVCIS,ioos:station:WAVCIS:CSI03:1,2016-01-07T20:00:00Z,29.4412,-92.0613,10.0,-11.45,11144222 
WAVCIS,ioos:station:WAVCIS:CSI03:1,2016-01-07T21:00:00Z,29.4412,-92.0613,10.0,-11.29,11144222 
WAVCIS,ioos:station:WAVCIS:CSI03:1,2016-01-07T22:00:00Z,29.4412,-92.0613,10.0,-11.26,11144222 
WAVCIS,ioos:station:WAVCIS:CSI03:1,2016-01-07T23:00:00Z,29.4412,-92.0613,10.0,-11.37,11144222 
WAVCIS,ioos:station:WAVCIS:CSI03:1,2016-01-08T00:00:00Z,29.4412,-92.0613,10.0,-11.4,11144222 
WAVCIS,ioos:station:WAVCIS:CSI03:1,2016-01-08T01:00:00Z,29.4412,-92.0613,10.0,-11.53,11144222 
WAVCIS,ioos:station:WAVCIS:CSI03:1,2016-01-08T02:00:00Z,29.4412,-92.0613,10.0,-11.7,11144222 
WAVCIS,ioos:station:WAVCIS:CSI03:1,2016-01-08T03:00:00Z,29.4412,-92.0613,10.0,-11.79,11144222 
WAVCIS,ioos:station:WAVCIS:CSI03:1,2016-01-08T04:00:00Z,29.4412,-92.0613,10.0,-12.08,11144222 
WAVCIS,ioos:station:WAVCIS:CSI03:1,2016-01-08T05:00:00Z,29.4412,-92.0613,10.0,-12.09,11144222 
WAVCIS,ioos:station:WAVCIS:CSI03:1,2016-01-08T06:00:00Z,29.4412,-92.0613,10.0,-12.14,11144222 
WAVCIS,ioos:station:WAVCIS:CSI03:1,2016-01-08T07:00:00Z,29.4412,-92.0613,10.0,-12.27,11144222 
WAVCIS,ioos:station:WAVCIS:CSI03:1,2016-01-08T08:00:00Z,29.4412,-92.0613,10.0,-12.27,11144222 
WAVCIS,ioos:station:WAVCIS:CSI03:1,2016-01-08T09:00:00Z,29.4412,-92.0613,10.0,-12.26,11144222 
WAVCIS,ioos:station:WAVCIS:CSI03:1,2016-01-08T10:00:00Z,29.4412,-92.0613,10.0,-12.19,11144222 
WAVCIS,ioos:station:WAVCIS:CSI03:1,2016-01-08T11:00:00Z,29.4412,-92.0613,10.0,-12.5,11144222 
WAVCIS,ioos:station:WAVCIS:CSI03:1,2016-01-08T12:00:00Z,29.4412,-92.0613,10.0,-12.68,11144222 
WAVCIS,ioos:station:WAVCIS:CSI03:1,2016-01-08T13:00:00Z,29.4412,-92.0613,10.0,-12.86,11144222 
WAVCIS,ioos:station:WAVCIS:CSI03:1,2016-01-08T14:00:00Z,29.4412,-92.0613,10.0,-12.67,11144222 
WAVCIS,ioos:station:WAVCIS:CSI03:1,2016-01-08T15:00:00Z,29.4412,-92.0613,10.0,-12.74,11144222 
WAVCIS,ioos:station:WAVCIS:CSI03:1,2016-01-08T16:00:00Z,29.4412,-92.0613,10.0,-12.6,11144222 
WAVCIS,ioos:station:WAVCIS:CSI03:1,2016-01-08T17:00:00Z,29.4412,-92.0613,10.0,-12.45,11144222 
WAVCIS,ioos:station:WAVCIS:CSI03:1,2016-01-08T18:00:00Z,29.4412,-92.0613,10.0,-12.12,11144222 
WAVCIS,ioos:station:WAVCIS:CSI03:1,2016-01-08T19:00:00Z,29.4412,-92.0613,10.0,-11.96,11144222 
WAVCIS,ioos:station:WAVCIS:CSI03:1,2016-01-08T20:00:00Z,29.4412,-92.0613,10.0,-12.09,11144222 
WAVCIS,ioos:station:WAVCIS:CSI03:1,2016-01-08T21:00:00Z,29.4412,-92.0613,10.0,-11.93,11144222 
WAVCIS,ioos:station:WAVCIS:CSI03:1,2016-01-08T22:00:00Z,29.4412,-92.0613,10.0,-11.72,11144222 
WAVCIS,ioos:station:WAVCIS:CSI03:1,2016-01-08T23:00:00Z,29.4412,-92.0613,10.0,-11.64,11144222 
WAVCIS,ioos:station:WAVCIS:CSI03:1,2016-01-09T00:00:00Z,29.4412,-92.0613,10.0,-11.61,11144222 
WAVCIS,ioos:station:WAVCIS:CSI03:1,2016-01-09T01:00:00Z,29.4412,-92.0613,10.0,-11.7,11144222 
WAVCIS,ioos:station:WAVCIS:CSI03:1,2016-01-09T02:00:00Z,29.4412,-92.0613,10.0,-11.76,11144222 
WAVCIS,ioos:station:WAVCIS:CSI03:1,2016-01-09T03:00:00Z,29.4412,-92.0613,10.0,-11.76,11144222 
WAVCIS,ioos:station:WAVCIS:CSI03:1,2016-01-09T04:00:00Z,29.4412,-92.0613,10.0,-11.78,11144222 
WAVCIS,ioos:station:WAVCIS:CSI03:1,2016-01-09T05:00:00Z,29.4412,-92.0613,10.0,-11.37,11144222 
WAVCIS,ioos:station:WAVCIS:CSI03:1,2016-01-09T06:00:00Z,29.4412,-92.0613,10.0,-11.39,11144222 
WAVCIS,ioos:station:WAVCIS:CSI03:1,2016-01-09T07:00:00Z,29.4412,-92.0613,10.0,-11.64,11144222 
WAVCIS,ioos:station:WAVCIS:CSI03:1,2016-01-09T08:00:00Z,29.4412,-92.0613,10.0,-6.893,11144222 
WAVCIS,ioos:station:WAVCIS:CSI03:1,2016-01-09T09:00:00Z,29.4412,-92.0613,10.0,-7.084,11144222 
WAVCIS,ioos:station:WAVCIS:CSI03:1,2016-01-09T10:00:00Z,29.4412,-92.0613,10.0,-6.969,11144222 
WAVCIS,ioos:station:WAVCIS:CSI03:1,2016-01-09T11:00:00Z,29.4412,-92.0613,10.0,-6.387,11144222 
WAVCIS,ioos:station:WAVCIS:CSI03:1,2016-01-09T12:00:00Z,29.4412,-92.0613,10.0,-6.356,11144222 
WAVCIS,ioos:station:WAVCIS:CSI03:1,2016-01-09T13:00:00Z,29.4412,-92.0613,10.0,-6.466,11144222 
WAVCIS,ioos:station:WAVCIS:CSI03:1,2016-01-09T14:00:00Z,29.4412,-92.0613,10.0,-6.261,11144222 
WAVCIS,ioos:station:WAVCIS:CSI03:1,2016-01-09T15:00:00Z,29.4412,-92.0613,10.0,-5.861,11144222 
WAVCIS,ioos:station:WAVCIS:CSI03:1,2016-01-09T16:00:00Z,29.4412,-92.0613,10.0,-5.852,11144222 
WAVCIS,ioos:station:WAVCIS:CSI03:1,2016-01-09T17:00:00Z,29.4412,-92.0613,10.0,-6.421,11144222 
WAVCIS,ioos:station:WAVCIS:CSI03:1,2016-01-09T18:00:00Z,29.4412,-92.0613,10.0,-6.889,11144222 
WAVCIS,ioos:station:WAVCIS:CSI03:1,2016-01-09T19:00:00Z,29.4412,-92.0613,10.0,-8.15,11144222 
WAVCIS,ioos:station:WAVCIS:CSI03:1,2016-01-09T20:00:00Z,29.4412,-92.0613,10.0,-8.41,11144222 
WAVCIS,ioos:station:WAVCIS:CSI03:1,2016-01-09T21:00:00Z,29.4412,-92.0613,10.0,-8.68,11144222 
WAVCIS,ioos:station:WAVCIS:CSI03:1,2016-01-09T22:00:00Z,29.4412,-92.0613,10.0,-8.73,11144222 
WAVCIS,ioos:station:WAVCIS:CSI03:1,2016-01-09T23:00:00Z,29.4412,-92.0613,10.0,-8.62,11144222 
WAVCIS,ioos:station:WAVCIS:CSI03:1,2016-01-10T00:00:00Z,29.4412,-92.0613,10.0,-8.05,11144222 
WAVCIS,ioos:station:WAVCIS:CSI03:1,2016-01-10T01:00:00Z,29.4412,-92.0613,10.0,-8.08,11144222 
WAVCIS,ioos:station:WAVCIS:CSI03:1,2016-01-10T02:00:00Z,29.4412,-92.0613,10.0,-7.863,11144222 
WAVCIS,ioos:station:WAVCIS:CSI03:1,2016-01-10T03:00:00Z,29.4412,-92.0613,10.0,-7.593,11144222 
WAVCIS,ioos:station:WAVCIS:CSI03:1,2016-01-10T04:00:00Z,29.4412,-92.0613,10.0,-6.971,11144222 
WAVCIS,ioos:station:WAVCIS:CSI03:1,2016-01-10T05:00:00Z,29.4412,-92.0613,10.0,-6.903,11144222 
WAVCIS,ioos:station:WAVCIS:CSI03:1,2016-01-10T06:00:00Z,29.4412,-92.0613,10.0,-6.716,11144222 
WAVCIS,ioos:station:WAVCIS:CSI03:1,2016-01-10T07:00:00Z,29.4412,-92.0613,10.0,-6.83,11144222 
WAVCIS,ioos:station:WAVCIS:CSI03:1,2016-01-10T08:00:00Z,29.4412,-92.0613,10.0,-6.901,11144222 
WAVCIS,ioos:station:WAVCIS:CSI03:1,2016-01-10T09:00:00Z,29.4412,-92.0613,10.0,-4.945,11144222 
WAVCIS,ioos:station:WAVCIS:CSI03:1,2016-01-10T10:00:00Z,29.4412,-92.0613,10.0,-6.438,11144222 
WAVCIS,ioos:station:WAVCIS:CSI03:1,2016-01-10T11:00:00Z,29.4412,-92.0613,10.0,-7.277,11144222 
WAVCIS,ioos:station:WAVCIS:CSI03:1,2016-01-10T12:00:00Z,29.4412,-92.0613,10.0,-7.826,11144222 
WAVCIS,ioos:station:WAVCIS:CSI03:1,2016-01-10T13:00:00Z,29.4412,-92.0613,10.0,-8.4,11144222 
WAVCIS,ioos:station:WAVCIS:CSI03:1,2016-01-10T14:00:00Z,29.4412,-92.0613,10.0,-8.89,11144222 
WAVCIS,ioos:station:WAVCIS:CSI03:1,2016-01-10T15:00:00Z,29.4412,-92.0613,10.0,-9.35,11144222 
WAVCIS,ioos:station:WAVCIS:CSI03:1,2016-01-10T16:00:00Z,29.4412,-92.0613,10.0,-9.63,11144222 
WAVCIS,ioos:station:WAVCIS:CSI03:1,2016-01-10T17:00:00Z,29.4412,-92.0613,10.0,-10.0,11144222 
WAVCIS,ioos:station:WAVCIS:CSI03:1,2016-01-10T18:00:00Z,29.4412,-92.0613,10.0,-10.4,11144222 
WAVCIS,ioos:station:WAVCIS:CSI03:1,2016-01-10T19:00:00Z,29.4412,-92.0613,10.0,-10.6,11144222 
WAVCIS,ioos:station:WAVCIS:CSI03:1,2016-01-10T20:00:00Z,29.4412,-92.0613,10.0,-10.89,11144222 
WAVCIS,ioos:station:WAVCIS:CSI03:1,2016-01-10T21:00:00Z,29.4412,-92.0613,10.0,-11.01,11144222 
WAVCIS,ioos:station:WAVCIS:CSI03:1,2016-01-10T22:00:00Z,29.4412,-92.0613,10.0,-11.29,11144222 
WAVCIS,ioos:station:WAVCIS:CSI03:1,2016-01-10T23:00:00Z,29.4412,-92.0613,10.0,-11.52,11144222 
WAVCIS,ioos:station:WAVCIS:CSI03:1,2016-01-11T00:00:00Z,29.4412,-92.0613,10.0,-11.65,11144222 
WAVCIS,ioos:station:WAVCIS:CSI03:1,2016-01-11T01:00:00Z,29.4412,-92.0613,10.0,-11.91,11144222 
WAVCIS,ioos:station:WAVCIS:CSI03:1,2016-01-11T02:00:00Z,29.4412,-92.0613,10.0,-12.15,11144222 
WAVCIS,ioos:station:WAVCIS:CSI03:1,2016-01-11T03:00:00Z,29.4412,-92.0613,10.0,-12.39,11144222 
WAVCIS,ioos:station:WAVCIS:CSI03:1,2016-01-11T04:00:00Z,29.4412,-92.0613,10.0,-12.58,11144222 
WAVCIS,ioos:station:WAVCIS:CSI03:1,2016-01-11T05:00:00Z,29.4412,-92.0613,10.0,-12.93,11144222 
WAVCIS,ioos:station:WAVCIS:CSI03:1,2016-01-11T06:00:00Z,29.4412,-92.0613,10.0,-13.19,11144222 
WAVCIS,ioos:station:WAVCIS:CSI03:1,2016-01-11T07:00:00Z,29.4412,-92.0613,10.0,-13.08,11144222 
WAVCIS,ioos:station:WAVCIS:CSI03:1,2016-01-11T08:00:00Z,29.4412,-92.0613,10.0,-13.35,11144222 
WAVCIS,ioos:station:WAVCIS:CSI03:1,2016-01-11T09:00:00Z,29.4412,-92.0613,10.0,-13.58,11144222 
WAVCIS,ioos:station:WAVCIS:CSI03:1,2016-01-11T10:00:00Z,29.4412,-92.0613,10.0,-13.91,11144222 
WAVCIS,ioos:station:WAVCIS:CSI03:1,2016-01-11T11:00:00Z,29.4412,-92.0613,10.0,-14.11,11144222 